{"data":{"norad_id":59308,"epoch":"2026-05-25T01:50:18.259008Z","epoch_age_seconds":61621,"freshness":"FRESH","line1":"1 59308U 24056N   26145.07660022  .00000714  00000+0  35464-4 0  9990","line2":"2 59308  42.9999 159.5780 0000989 277.5778  82.4961 15.27574979122835","mean_motion":15.27574979,"eccentricity":9.89e-5,"inclination_deg":42.9999,"raan_deg":159.578,"arg_perigee_deg":277.5778,"mean_anomaly_deg":82.4961,"bstar":3.5464e-5,"rev_number":12283,"period_min":94.26705855988,"perigee_km":482.3855579693,"apogee_km":483.74270355296,"semimajor_km":6861.2011307611,"source":"CELESTRAK","updated_at":"2026-05-25T13:38:18.900184Z"}}